Weather in Chake Chake

Tanzania     5°14′53″S   39°46′01″E
temp.,
°C
wind,
m/s
gust,
m/s
humid.,
%
clouds,
%
prec.,
mm/h
press.,
hPa
HPBL,
m
8 august, mon
mon800:00+22se58750 0.0 1016520
03:00+22sse4776100 0.0 1014353
06:00+21sse378627 0.4 1016299
09:00+25s576576 0.8 10171168
12:00+27s565261 0.7 10171472
15:00+27se565510 0.9 10151416
18:00+24se466919 0.0 1016584
21:00+22sse478076 0.0 1017321
9 august, tue
tue900:00+22sse477916 0.0 1017346
03:00+22sse37825 0.0 1015318
06:00+21sse378124 0.0 1016315
09:00+26sse45616 0.0 10181184
12:00+28s555211 0.0 10181417
15:00+28s55529 0.0 10151213
18:00+24sse47705 0.0 1015598
21:00+23sse488133 0.0 1017464
10 august, wed
wed1000:00+22se488826 0.4 1017383
03:00+22se598927 1.4 1015486
06:00+23se5108566 0.1 1016548
09:00+25se697496 0.4 1018943
12:00+27se68625 0.4 10171233
15:00+26se576922 1.4 10151019
18:00+24ese477561 0.1 1015733
21:00+23se4884100 0.3 1017444
11 august, thu
thu1100:00+23se4884100 0.0 1017439
03:00+22se4884100 0.1 1015435
06:00+22se4882100 0.1 1016393
09:00+26se576277 0.1 10181213
12:00+27se6757100 0.1 10171431
15:00+27sse695760 0.1 10151421
18:00+24sse5971100 0.0 1015992
21:00+23sse5107810 0.1 1017721
12 august, fri
fri1200:00+23se6107517 0.0 1017806
03:00+23se6107365 0.0 1015797
06:00+23se48756 0.0 1016609
09:00+26se576540 0.6 10181115
12:00+26sse575989 0.7 10171121
15:00+27sse6754100 0.8 10141346
18:00+24sse587215 0.0 1015819
21:00+23sse598240 0.0 1016522